Location: Mercogliano
(40.9167°N, 14.7333°E)
Time: 13:59:25
(UTC+00:00)

CZ-2C R/B - Pass Details

Date: 18 September 2020
Orbit: 785 x 870 km, 98.2° (Epoch: 28 October)

Event Time Altitude Azimuth Distance (km) Brightness Sun altitude
Rises 19:18:00 0° 7° (N) 3,415 6.1 -25.1°
Reaches altitude 10° 19:20:25 10° 2° (N) 2,487 5.4 -25.6°
Maximum altitude 19:25:43 49° 289° (WNW) 1,101 3.6 -26.4°
Drops below altitude 10° 19:31:04 10° 216° (SW) 2,505 5.2 -27.3°
Sets 19:33:31 0° 211° (SSW) 3,442 5.9 -27.7°
